"Time","Temp","Dewpoint","Humidity","Pressure","Direction","Speed","Gust","Precip","PrecipRate"
"00:04:59","63.1","60.3","90.7","30.19","329","0","0","0.00","0.00"
"00:09:56","62.9","60.2","91","30.19","329","0","0","0.00","0.00"
"00:14:56","62.8","60.1","91","30.19","329","0","0","0.00","0.00"
"00:19:59","62.8","60.1","91","30.18","329","0","0","0.00","0.00"
"00:24:58","62.7","60.1","91.5","30.18","329","0","0","0.00","0.00"
"00:29:56","62.7","60.3","92","30.18","329","0","0","0.00","0.00"
"00:34:59","62.7","60.3","92","30.18","329","0","0","0.00","0.00"
"00:39:58","62.6","60.2","92","30.18","329","0","0","0.00","0.00"
"00:44:57","62.5","60.1","92","30.18","329","0","0","0.00","0.00"
"00:49:57","62.5","60.1","92","30.18","329","0","0","0.00","0.00"
"00:54:56","62.3","59.9","92","30.18","329","0","0","0.00","0.00"
"00:59:58","62.2","59.8","92","30.18","329","0","0","0.00","0.00"
"01:04:56","62.1","59.7","92","30.18","329","0","0","0.00","0.00"
"01:09:56","62","59.8","92.4","30.18","329","0","0","0.00","0.00"
"01:14:56","61.9","59.9","93","30.18","329","0","0","0.00","0.00"
"01:19:58","61.8","59.8","93","30.18","329","0","0","0.00","0.00"
"01:24:57","61.8","59.8","93","30.18","329","0","0","0.00","0.00"
"01:29:59","61.6","59.6","92.8","30.18","329","0","0","0.00","0.00"
"01:34:58","61.5","59.5","93","30.17","329","0","0","0.00","0.00"
"01:39:57","61.4","59.4","93","30.17","329","0","0","0.00","0.00"
"01:44:56","61.3","59.3","93","30.18","329","0","0","0.00","0.00"
"01:49:59","61.2","59.2","93","30.18","329","0","0","0.00","0.00"
"01:54:58","61.2","59.3","93.4","30.18","329","0","0","0.00","0.00"
"01:59:56","61.2","59.5","94","30.18","329","0","0","0.00","0.00"
"02:04:58","61.1","59.4","94","30.18","329","0","0","0.00","0.00"
"02:09:58","61.1","59.4","94","30.18","329","0","0","0.00","0.00"
"02:14:58","61","59.3","94","30.18","329","0","0","0.00","0.00"
"02:19:56","60.9","59.2","94","30.18","329","0","0","0.00","0.00"
"02:24:59","60.8","59.1","94","30.18","329","0","0","0.00","0.00"
"02:29:57","60.6","58.9","94","30.18","329","0","0","0.00","0.00"
"02:34:55","60.5","58.8","94","30.18","329","0","0","0.00","0.00"
"02:39:59","60.5","58.8","94","30.18","329","0","0","0.00","0.00"
"02:44:57","60.4","58.7","94","30.18","329","0","0","0.00","0.00"
"02:49:56","60.4","58.7","94","30.17","329","0","0","0.00","0.00"
"02:54:58","60.3","58.6","94","30.17","329","0","0","0.00","0.00"
"02:59:57","60.3","58.6","94","30.17","329","0","0","0.00","0.00"
"03:04:57","60.2","58.5","94","30.17","329","0","0","0.00","0.00"
"03:09:57","60.2","58.6","94.2","30.17","329","0","0","0.00","0.00"
"03:14:57","60.2","58.5","94.1","30.17","329","0","0","0.00","0.00"
"03:19:59","60.2","58.8","95","30.17","329","0","0","0.00","0.00"
"03:24:58","60.1","58.6","94.6","30.17","329","0","0","0.00","0.00"
"03:29:57","60","58.3","94","30.17","329","0","0","0.00","0.00"
"03:34:57","60","58.3","94","30.17","329","0","0","0.00","0.00"
"03:39:59","59.9","58.3","94.4","30.17","329","0","0","0.00","0.00"
"03:44:56","59.8","58.2","94.3","30.17","329","0","0","0.00","0.00"
"03:49:57","59.7","58.3","94.8","30.16","329","0","0","0.00","0.00"
"03:54:56","59.6","58.2","95","30.16","329","0","0","0.00","0.00"
"03:59:58","59.6","58.2","95","30.17","329","0","0","0.00","0.00"
"04:04:56","59.7","58.3","95","30.17","329","0","0","0.00","0.00"
"04:09:59","59.6","58.2","95","30.17","329","0","0","0.00","0.00"
"04:14:57","59.6","58.2","95","30.17","329","0","0","0.00","0.00"
"04:19:59","59.5","58.1","95","30.17","329","0","0","0.00","0.00"
"04:24:57","59.4","58","95","30.17","329","0","0","0.00","0.00"
"04:29:57","59.3","57.9","95","30.17","329","0","0","0.00","0.00"
"04:34:59","59.3","57.9","95","30.17","329","0","0","0.00","0.00"
"04:39:57","59.2","57.8","95","30.17","329","0","0","0.00","0.00"
"04:44:59","59.1","57.7","95","30.17","329","0","0","0.00","0.00"
"04:49:57","59.2","57.8","95","30.17","329","0","0","0.00","0.00"
"04:54:59","59.3","58.2","95.8","30.17","329","0","0","0.00","0.00"
"04:59:56","59.5","58.4","96","30.17","329","0","0","0.00","0.00"
"05:04:59","59.5","58.4","96","30.17","329","0","0","0.00","0.00"
"05:09:59","59.4","58.3","96","30.17","329","0","0","0.00","0.00"
"05:14:58","59.4","58.3","95.8","30.17","329","0","0","0.00","0.00"
"05:19:59","59.4","58.2","95.7","30.17","329","0","0","0.00","0.00"
"05:24:57","59.4","58","95.3","30.17","329","0","0","0.00","0.00"
"05:29:59","59.3","58.1","95.6","30.17","329","0","0","0.00","0.00"
"05:34:57","59.2","58","95.7","30.17","329","0","0","0.00","0.00"
"05:39:56","59.2","58.1","96","30.17","329","0","0","0.00","0.00"
"05:44:58","59.2","58.1","96","30.18","329","0","0","0.00","0.00"
"05:49:59","59.1","58","96","30.18","329","0","0","0.00","0.00"
"05:54:57","59.1","58","96","30.18","329","0","0","0.00","0.00"
"05:59:58","59","57.8","95.7","30.18","329","0","0","0.00","0.00"
"06:04:56","58.9","57.5","95","30.18","329","0","0","0.00","0.00"
"06:09:57","58.9","57.5","95","30.18","329","0","0","0.00","0.00"
"06:14:56","58.8","57.4","95.1","30.19","329","0","0","0.00","0.00"
"06:19:58","58.8","57.6","95.8","30.19","329","0","0","0.00","0.00"
"06:24:59","58.7","57.6","96","30.19","329","0","0","0.00","0.00"
"06:29:56","58.6","57.5","96","30.19","329","0","0","0.00","0.00"
"06:34:58","58.5","57.4","96","30.19","329","0","0","0.00","0.00"
"06:39:56","58.5","57.3","95.9","30.19","329","0","0","0.00","0.00"
"06:44:58","58.4","57","95","30.20","329","0","0","0.00","0.00"
"06:49:56","58.3","57","95.4","30.20","329","0","0","0.00","0.00"
"06:54:58","58.3","57.2","96","30.20","329","0","0","0.00","0.00"
"06:59:56","58.2","57.1","96","30.20","329","0","0","0.00","0.00"
"07:04:58","58.2","57.1","96","30.20","329","0","0","0.00","0.00"
"07:09:58","58.2","57.1","96","30.20","329","0","0","0.00","0.00"
"07:14:57","58.1","57","96","30.21","329","0","0","0.00","0.00"
"07:19:59","58.1","57","96","30.21","329","0","0","0.00","0.00"
"07:24:57","58.2","57.1","96","30.21","329","0","0","0.00","0.00"
"07:29:58","58.3","57.2","96","30.21","329","0","0","0.00","0.00"
"07:34:56","58.3","57.2","96","30.21","329","0","0","0.00","0.00"
"07:39:59","58.5","57.4","96","30.21","329","0","0","0.00","0.00"
"07:44:56","58.6","57.5","96","30.21","329","0","0","0.00","0.00"
"07:49:57","58.7","57.6","96","30.21","329","0","0","0.00","0.00"
"07:54:59","59","57.9","96","30.21","329","0","0","0.00","0.00"
"07:59:56","59.5","58.5","96.7","30.22","329","0","0","0.00","0.00"
"08:04:58","59.9","58.9","96.4","30.22","329","0","0","0.00","0.00"
"08:09:58","60.6","59.6","96.8","30.22","329","0","0","0.00","0.00"
"08:14:56","61.1","60","96.1","30.22","329","0","0","0.00","0.00"
"08:19:57","61.6","60.4","95.9","30.22","329","0","0","0.00","0.00"
"08:24:59","62.2","60.6","94.4","30.22","329","0","0","0.00","0.00"
"08:29:56","62.7","60.4","92.6","30.22","329","0","0","0.00","0.00"
"08:34:57","63.2","60.7","91.6","30.22","338","0.6","3.6","0.00","0.00"
"08:39:59","63.8","60.9","90.4","30.22","349","1.2","4.8","0.00","0.00"
"08:44:56","64.3","61","89.1","30.23","350","2.3","4.8","0.00","0.00"
"08:49:57","64.8","61.3","88.3","30.23","348","2.3","4.8","0.00","0.00"
"08:54:58","65.1","61.3","87.5","30.23","350","2.6","6","0.00","0.00"
"08:59:59","65.5","61.6","87.2","30.23","338","1.8","4.8","0.00","0.00"
"09:04:56","66","62","86.7","30.22","342","1.2","6","0.00","0.00"
"09:09:59","66.5","61.9","85.1","30.22","338","2.3","5.8","0.00","0.00"
"09:14:58","67.1","62.2","84.2","30.23","348","2.3","4.8","0.00","0.00"
"09:19:59","67.9","62.4","82.6","30.23","355","1.8","4.8","0.00","0.00"
"09:24:56","68.5","62.6","81.5","30.23","355","2.2","6","0.00","0.00"
"09:29:58","68.9","62.7","80.7","30.23","356","2.6","5.8","0.00","0.00"
"09:34:56","69.6","63.1","79.9","30.22","355","1.8","4.8","0.00","0.00"
"09:39:59","69.9","63.3","79.5","30.22","350","2","7.2","0.00","0.00"
"09:44:56","70.1","63.1","78.5","30.22","320","2.9","6.9","0.00","0.00"
"09:49:56","71.1","63.7","77.6","30.22","308","0.8","4.8","0.00","0.00"
"09:54:56","71.2","63.2","75.9","30.22","307","1.9","4.6","0.00","0.00"
"09:59:59","71.7","63.6","75.8","30.22","300","1.1","3.5","0.00","0.00"
"10:04:58","72.1","63.7","74.8","30.22","298","0.6","2.4","0.00","0.00"
"10:09:57","73.1","64.4","74.1","30.22","299","1.1","4.8","0.00","0.00"
"10:14:59","73.6","64.8","73.9","30.22","299","0.7","4.6","0.00","0.00"
"10:19:56","74.2","64.3","71.4","30.22","338","1.9","6","0.00","0.00"
"10:24:57","74.5","64.7","71.6","30.22","342","0.9","3.6","0.00","0.00"
"10:29:57","74.9","64.6","70.4","30.22","341","1.4","4.8","0.00","0.00"
"10:34:59","75.1","64.5","69.8","30.22","341","2.4","4.8","0.00","0.00"
"10:39:58","76.2","65.9","70.5","30.22","341","0.4","3.5","0.00","0.00"
"10:44:56","76.4","65.3","68.5","30.22","339","1","3.6","0.00","0.00"
"10:49:57","76.6","65.9","69.4","30.22","278","1.4","4.8","0.00","0.00"
"10:54:58","76.9","65.1","67","30.22","346","1.3","4.8","0.00","0.00"
"10:59:59","77.1","65.4","67.3","30.22","311","1.1","3.6","0.00","0.00"
"11:04:56","77.3","65.4","66.7","30.22","280","0.8","4.8","0.00","0.00"
"11:09:56","78.2","65.5","65","30.22","280","1.2","3.6","0.00","0.00"
"11:14:59","78.3","65.2","64.1","30.22","267","1.5","4.8","0.00","0.00"
"11:19:56","78.4","66","65.6","30.22","266","1.7","3.6","0.00","0.00"
"11:24:58","78.4","64.9","63.3","30.22","267","1.7","3.6","0.00","0.00"
"11:29:59","78.7","64.5","61.9","30.22","314","1.9","6","0.00","0.00"
"11:34:58","78.6","63.7","60.2","30.22","339","2.9","8.4","0.00","0.00"
"11:39:56","78.1","63.2","60.4","30.22","335","2.3","5.8","0.00","0.00"
"11:44:58","78.2","63.9","61.5","30.22","302","0.4","3.6","0.00","0.00"
"11:49:56","78.6","64.7","62.4","30.21","216","1.6","3.6","0.00","0.00"
"11:54:59","79.3","64.7","61.1","30.21","240","0.8","4.8","0.00","0.00"
"11:59:58","79.5","64.1","59.5","30.21","338","2.8","7.2","0.00","0.00"
"12:04:58","79.4","63.9","59.2","30.21","345","0.7","2.4","0.00","0.00"
"12:09:59","80.6","65.2","59.6","30.21","345","0.7","2.4","0.00","0.00"
"12:14:57","81","65.1","58.7","30.21","346","0.3","2.4","0.00","0.00"
"12:19:56","81","65.6","59.6","30.21","343","0.6","2.4","0.00","0.00"
"12:24:59","81.4","65","57.7","30.21","306","1.9","7.2","0.00","0.00"
"12:29:58","81.4","64.3","56.1","30.21","321","1.9","4.8","0.00","0.00"
"12:34:58","81.9","64.8","56.4","30.21","336","1.2","3.6","0.00","0.00"
"12:39:58","82.1","64.9","56.2","30.21","254","1.6","3.6","0.00","0.00"
"12:44:58","81.1","64.6","57.4","30.21","159","1","3.5","0.00","0.00"
"12:49:58","80.7","63.7","56.3","30.20","157","0.8","3.6","0.00","0.00"
"12:54:57","80.9","63.8","56.2","30.20","139","2.4","4.8","0.00","0.00"
"12:59:56","80.5","62.8","55","30.20","135","1","4.8","0.00","0.00"
"13:04:56","80.8","64.1","56.8","30.20","299","1.6","4.6","0.00","0.00"
"13:09:57","81.7","64.1","55.2","30.20","334","1.5","6","0.00","0.00"
"13:14:58","83.1","64.3","53.3","30.20","340","1","3.6","0.00","0.00"
"13:19:57","82.3","62.8","51.7","30.20","124","1.8","8.4","0.00","0.00"
"13:24:57","82.4","63.4","52.8","30.20","158","0.7","2.4","0.00","0.00"
"13:29:56","82.2","63.1","52.5","30.20","209","2.6","6","0.00","0.00"
"13:34:59","82","64.2","54.9","30.20","303","2.3","6","0.00","0.00"
"13:39:59","82.6","63.4","52.3","30.20","336","4","8.4","0.00","0.00"
"13:44:59","82.4","62.8","51.6","30.20","318","3.1","8.1","0.00","0.00"
"13:49:59","82.2","62.8","52","30.19","310","1.9","4.8","0.00","0.00"
"13:54:58","82.3","63.7","53.6","30.19","352","0.6","2.4","0.00","0.00"
"13:59:57","81.4","62.5","52.8","30.19","140","1.7","4.8","0.00","0.00"
"14:04:57","81.3","62.9","53.8","30.18","19","0.9","4.8","0.00","0.00"
"14:09:58","82.6","63.5","52.6","30.18","341","1.4","6","0.00","0.00"
"14:14:59","82.5","61.8","49.7","30.18","347","0.7","2.4","0.00","0.00"
"14:19:58","82.4","61.7","49.9","30.17","347","0.8","2.4","0.00","0.00"
"14:24:57","83.3","62.4","49.5","30.17","346","0.5","2.4","0.00","0.00"
"14:29:56","82.6","60.4","47.2","30.17","42","2.3","4.8","0.00","0.00"
"14:34:56","82.2","60.9","48.6","30.17","109","1.7","4.6","0.00","0.00"
"14:39:57","82.6","61.3","48.8","30.17","104","0.5","1.2","0.00","0.00"
"14:44:56","83.5","61.9","48.3","30.17","104","0.4","2.4","0.00","0.00"
"14:49:57","83.8","61.7","47.6","30.17","104","1.3","4.8","0.00","0.00"
"14:54:56","83","60.3","46.4","30.17","105","1.6","4.6","0.00","0.00"
"14:59:59","83.9","60.9","46","30.17","104","0.4","3.5","0.00","0.00"
"15:04:58","83.9","60.4","45.2","30.16","283","2","6","0.00","0.00"
"15:09:56","83.5","61.4","47.5","30.16","338","0.8","4.8","0.00","0.00"
"15:14:56","83.4","60.5","46.1","30.16","324","1.5","7.2","0.00","0.00"
"15:19:55","83.5","61.1","46.9","30.15","337","1.2","4.8","0.00","0.00"
"15:24:59","83.5","61.2","47.1","30.15","338","0.7","6","0.00","0.00"
"15:29:58","82.3","59.9","46.7","30.15","334","0.7","5.8","0.00","0.00"
"15:34:58","81.4","59.5","47.6","30.15","338","0.9","2.4","0.00","0.00"
"15:39:59","81.5","60.2","48.6","30.15","338","0.5","2.4","0.00","0.00"
"15:44:59","82.6","60.7","47.6","30.15","347","0.8","3.6","0.00","0.00"
"15:49:59","82.9","59.3","45","30.15","86","1.6","3.6","0.00","0.00"
"15:54:59","83.3","60.3","46","30.15","86","0.2","3.6","0.00","0.00"
"15:59:58","83.5","60.5","46","30.15","162","2.8","4.8","0.00","0.00"
"16:04:57","83.7","61.1","46.6","30.14","186","1.8","3.6","0.00","0.00"
"16:09:58","84.3","60.9","45.3","30.14","259","2.1","6","0.00","0.00"
"16:14:57","84","60.1","44.5","30.14","342","2.5","7.2","0.00","0.00"
"16:19:58","84","60.6","45.4","30.14","333","3","6","0.00","0.00"
"16:24:56","83.4","59.9","45","30.14","317","0.7","4.6","0.00","0.00"
"16:29:57","83.1","60.6","46.6","30.14","316","0.9","2.4","0.00","0.00"
"16:34:57","83.7","60.3","45.4","30.14","315","1.2","3.6","0.00","0.00"
"16:39:57","84","59.9","44.3","30.14","330","1.3","4.8","0.00","0.00"
"16:44:56","83.7","59.7","44.4","30.14","334","0.8","2.4","0.00","0.00"
"16:49:56","82.7","59.7","45.7","30.13","333","0.5","2.4","0.00","0.00"
"16:54:56","83.6","61.4","47.4","30.13","333","0.1","1.2","0.00","0.00"
"16:59:59","84","60.2","44.7","30.13","333","0.6","2.4","0.00","0.00"
"17:04:59","83.2","59","44.1","30.13","354","0.9","3.6","0.00","0.00"
"17:09:56","82.5","59","44.9","30.13","360","0.6","3.6","0.00","0.00"
"17:14:57","82.9","59.4","45","30.13","360","0.2","2.4","0.00","0.00"
"17:19:56","83.9","59.2","43.3","30.13","360","1.2","3.6","0.00","0.00"
"17:24:56","83.5","59.5","44.4","30.13","360","1.3","3.6","0.00","0.00"
"17:29:56","83.1","60","45.7","30.13","358","0.9","3.6","0.00","0.00"
"17:34:59","82.7","59.5","45.5","30.13","351","2.2","4.8","0.00","0.00"
"17:39:59","82.4","59.3","45.8","30.13","344","1.9","4.6","0.00","0.00"
"17:44:59","82.6","59.6","45.9","30.13","345","1","3.6","0.00","0.00"
"17:49:59","82.8","59","44.6","30.13","345","2","3.6","0.00","0.00"
"17:54:59","82.8","58.9","44.3","30.13","345","1","3.5","0.00","0.00"
"17:59:58","82.8","58.7","44","30.13","345","1.3","2.4","0.00","0.00"
"18:04:57","82.7","58.7","44.2","30.13","344","1","3.6","0.00","0.00"
"18:09:58","82.3","58.1","43.9","30.13","344","1.1","3.5","0.00","0.00"
"18:14:59","81.8","61","49.5","30.13","344","0.5","1.2","0.00","0.00"
"18:19:59","80.7","61.7","52.6","30.13","344","0.1","1.2","0.00","0.00"
"18:24:59","79.4","61.6","54.4","30.13","344","0.3","1.2","0.00","0.00"
"18:29:57","78.3","61","55.3","30.14","344","0.6","2.4","0.00","0.00"
"18:34:56","77.5","61.4","57.7","30.14","344","0.3","1.2","0.00","0.00"
"18:39:59","76.8","61.7","59.6","30.14","344","0.1","1.2","0.00","0.00"
"18:44:58","76.1","62.1","62.1","30.14","344","0","1.2","0.00","0.00"
"18:49:57","75.3","62.2","63.8","30.14","344","0.2","1.2","0.00","0.00"
"18:54:59","74.6","61.8","64.4","30.14","344","0.6","2.4","0.00","0.00"
"18:59:58","73.9","62.1","66.5","30.14","344","0","0","0.00","0.00"
"19:04:56","73.3","61.9","67.3","30.14","344","0","0","0.00","0.00"
"19:09:56","72.8","61.7","68.5","30.14","344","0.1","1.2","0.00","0.00"
"19:14:56","72.2","61.8","69.8","30.14","344","0","1.2","0.00","0.00"
"19:19:58","71.8","61.8","70.9","30.14","344","0.4","1.2","0.00","0.00"
"19:24:57","71.4","61.6","71.3","30.14","344","0.1","1.2","0.00","0.00"
"19:29:59","71","61.4","71.8","30.14","344","0","1.2","0.00","0.00"
"19:34:58","70.6","61.2","72.2","30.14","344","0","0","0.00","0.00"
"19:39:57","70.2","61.2","73.2","30.14","344","0","0","0.00","0.00"
"19:44:57","69.8","61.4","74.8","30.14","344","0","0","0.00","0.00"
"19:49:59","69.5","61.6","76","30.14","344","0","0","0.00","0.00"
"19:54:58","69.2","61.3","76","30.14","344","0","0","0.00","0.00"
"19:59:56","68.8","60.9","76.1","30.15","344","0","0","0.00","0.00"
"20:04:58","68.5","61","77","30.15","344","0","0","0.00","0.00"
"20:09:58","68.2","61.1","78","30.15","344","0","1.2","0.00","0.00"
"20:14:57","68.1","61","78.2","30.15","344","0","0","0.00","0.00"
"20:19:59","67.9","61.2","79.3","30.15","344","0.5","1.2","0.00","0.00"
"20:24:58","67.8","61.4","80","30.15","344","0.3","1.2","0.00","0.00"
"20:29:56","67.7","61.3","80","30.15","344","0","0","0.00","0.00"
"20:34:59","67.6","61.3","80.1","30.15","344","0","0","0.00","0.00"
"20:39:58","67.4","61.4","81","30.15","344","0.5","2.4","0.00","0.00"
"20:44:56","67.1","61.4","82","30.16","344","0.1","1.2","0.00","0.00"
"20:49:59","66.8","61.3","82.5","30.16","344","0","0","0.00","0.00"
"20:54:58","66.6","61.3","83","30.16","344","0","0","0.00","0.00"
"20:59:56","66.4","61.1","83.1","30.16","344","0","0","0.00","0.00"
"21:04:58","66.3","61.3","84","30.16","344","0","0","0.00","0.00"
"21:09:58","66.1","61.1","84","30.16","344","0","0","0.00","0.00"
"21:14:58","66","61","84","30.16","344","0","0","0.00","0.00"
"21:19:57","65.8","60.8","84","30.15","344","0","0","0.00","0.00"
"21:24:56","65.4","60.8","85","30.15","344","0","0","0.00","0.00"
"21:29:58","65.2","60.9","85.8","30.16","344","0","0","0.00","0.00"
"21:34:57","65.1","60.8","86","30.16","344","0","0","0.00","0.00"
"21:39:56","64.9","60.6","86","30.16","344","0","0","0.00","0.00"
"21:44:59","64.7","60.6","86.4","30.16","344","0","0","0.00","0.00"
"21:49:58","64.6","60.6","87","30.16","344","0","0","0.00","0.00"
"21:54:56","64.4","60.4","87","30.16","344","0","0","0.00","0.00"
"21:59:59","64.2","60.4","87.3","30.16","344","0","0","0.00","0.00"
"22:04:57","64.1","60.3","87.6","30.16","344","0","0","0.00","0.00"
"22:09:57","63.9","60.3","88","30.16","344","0","0","0.00","0.00"
"22:14:57","63.7","60.1","88","30.16","344","0","0","0.00","0.00"
"22:19:59","63.6","60","88.1","30.16","345","0","0","0.00","0.00"
"22:24:58","63.5","60.2","89","30.16","345","0","0","0.00","0.00"
"22:29:57","63.4","60","88.5","30.16","345","0","0","0.00","0.00"
"22:34:57","63.5","60","88.3","30.16","345","0","0","0.00","0.00"
"22:39:56","63.6","60","88","30.16","345","0","0","0.00","0.00"
"22:44:59","63.5","59.9","88","30.16","345","0","0","0.00","0.00"
"22:49:57","63.3","59.8","88.2","30.16","345","0","0","0.00","0.00"
"22:54:56","63.1","59.8","89","30.16","345","0","0","0.00","0.00"
"22:59:58","62.9","59.6","89","30.16","345","0","0","0.00","0.00"
"23:04:57","62.8","59.5","89","30.16","345","0","0","0.00","0.00"
"23:09:57","62.6","59.4","89.3","30.16","345","0","0","0.00","0.00"
"23:14:57","62.3","59.3","90","30.16","345","0","0","0.00","0.00"
"23:19:58","62.1","59.1","90","30.16","345","0","0","0.00","0.00"
"23:24:57","61.9","59","90.1","30.16","345","0","0","0.00","0.00"
"23:29:59","61.7","59","91","30.16","345","0","0","0.00","0.00"
"23:34:58","61.6","58.9","91","30.16","345","0","0","0.00","0.00"
"23:39:57","61.6","59.3","92","30.16","345","0","0","0.00","0.00"
"23:44:56","61.5","59.2","92","30.16","345","0","0","0.00","0.00"
